STARLINK-34528

Last updated on Thu Jul 03 2025 00:02:07 GMT+0000 (Coordinated Universal Time)

1 64479U 25133H 25183.58335648 -.01069492 00000+0 -53005-2 0 9992 2 64479 53.1562 210.8277 0000939 59.4863 289.7376 15.83944921 2704
UTC large
Height (km)
Speed (km/s)
/
Latitude / Longitude
Inclination (degrees)
Orbital Period (minutes)
Azimuth
Elevation
Range (km)
Doppler Factor

Next 0 passes for location: London (51.5072 / 0.1276)

Sorry there are no passes over London.